Location: Casalecchio di Reno
(44.4760°N, 11.2757°E)
Time: 16:17:47
(UTC+02:00)

DX 1 - Pass Details

Date: 23 June 2024
Orbit: 607 x 619 km, 98.3° (Epoch: 19 July)

Event Time Altitude Azimuth Distance (km) Brightness Sun altitude
Rises 01:16:57 0° 15° (NNE) 2,877 ? -22.1°
Reaches altitude 10° 01:19:08 10° 17° (NNE) 1,968 ? -22.1°
Maximum altitude 01:23:24 73° 102° (ESE) 640 ? -22.1°
Enters shadow 01:23:49 67° 147° (SSE) 663 ? -22.1°
